Flag for Canada Weather past 2 weeks in Kamloops, British Columbia, Canada

Now
50 °F

Partly cloudy.


Feels Like: 50 °F
Forecast: 44 / 60 °F
Wind: 2 mph from North

Location: Kamloops


UV Index: 0 (Low)

Visibility: 40 mi


Pressure: 29.84 "Hg

Humidity: 58%

Dew point: 36 °F

Location of KamloopsLocation

Historic Weather in Kamloops

°F

Kamloops temperature yesterday

Maximum temperature yesterday: 57 °F (at 3:00 PM)
Minimum temperature yesterday: 39 °F (at 4:00 AM)
Average temperature yesterday: 49 °F

Past Weeks' High & Low Weather Summary

 TemperatureHumidityPressure
High70 °F (Apr 8, 2:00 PM)87% (Apr 4, 7:00 AM)30.46 "Hg (Apr 4, 7:00 AM)
Low30 °F (Apr 2, 5:00 AM)11% (Apr 14, 5:00 PM)29.74 "Hg (Apr 4, 2:00 PM)
Average49 °F49%30.00 "Hg
* Reported Apr 1 11:00 PM — Apr 16 11:00 PM, Kamloops, Weather by CustomWeather, © 2014

Note: Actual official high and low records may vary slightly from our data, if they occured in-between our weather recording intervals... More about our weather records

Advertising

Historic Weather Conditions — Data for Previous 24 hours

 ConditionsComfort  
Time TempWeatherWind HumidityBarometerVisibility
11:00 PM
Apr 16
50 °FPartly cloudy.2 mph58%29.84 "Hg40 mi
10:00 PM50 °FPartly cloudy.No wind62%29.85 "Hg40 mi
9:00 PM52 °FPassing clouds.2 mph58%29.85 "Hg40 mi
8:00 PM54 °FMostly cloudy.5 mph54%29.85 "Hg40 mi
7:00 PM55 °FPartly sunny.12 mph51%29.87 "Hg40 mi
6:00 PM55 °FPartly sunny.6 mph55%29.88 "Hg40 mi
5:00 PM55 °FMostly cloudy.10 mph51%29.89 "Hg40 mi
4:00 PM57 °FScattered showers. Mostly cloudy.5 mph44%29.90 "Hg40 mi
3:00 PM57 °FMore clouds than sun.9 mph44%29.92 "Hg40 mi
2:00 PM55 °FMore clouds than sun.12 mph51%29.93 "Hg40 mi
1:00 PM55 °FMore clouds than sun.5 mph44%29.94 "Hg40 mi
12:00 PM54 °FMore clouds than sun.6 mph47%29.96 "Hg40 mi
11:00 AM52 °FPartly sunny.5 mph50%29.97 "Hg40 mi
10:00 AM50 °FBroken clouds.No wind58%29.98 "Hg40 mi
9:00 AM46 °FBroken clouds.2 mph66%29.99 "Hg40 mi
8:00 AM43 °FPartly sunny.No wind76%30.00 "Hg40 mi
7:00 AM41 °FPassing clouds.2 mph76%30.01 "Hg40 mi
6:00 AM41 °FMostly cloudy.2 mph81%30.00 "Hg40 mi
5:00 AM41 °FMostly cloudy.No wind76%30.00 "Hg40 mi
4:00 AM39 °FMostly cloudy.5 mph81%30.00 "Hg40 mi
3:00 AM41 °FMostly cloudy.No wind76%29.99 "Hg40 mi
2:00 AM41 °FOvercast.2 mph70%29.99 "Hg40 mi
1:00 AM41 °FOvercast.5 mph76%29.99 "Hg40 mi
12:00 AM41 °FOvercast.2 mph70%29.98 "Hg40 mi
Weather by CustomWeather, © 2014

See weather overview